timestamp,wind_dir_avg,wind_spd_avg,wind_spd_max_dir,wind_spd_gust,battery_voltage,lat,long
2023-11-06 00:04:01+00:00,242.0,3.38,243.0,3.83,12.33,47.59359,-54.27349
2023-11-06 00:14:01+00:00,234.0,4.0,231.0,4.4,12.25,47.59359,-54.27349
2023-11-06 00:24:01+00:00,229.0,4.26,228.0,4.64,12.25,47.59359,-54.27349
2023-11-06 00:34:01+00:00,241.0,4.05,239.0,4.45,12.25,47.59359,-54.27349
2023-11-06 00:44:01+00:00,231.0,4.03,230.0,4.64,12.25,47.59359,-54.27349
2023-11-06 00:54:01+00:00,239.0,5.03,239.0,5.42,12.25,47.59359,-54.27349
2023-11-06 01:04:01+00:00,248.0,4.91,244.0,5.37,12.25,47.59359,-54.27349
2023-11-06 01:14:00+00:00,223.0,5.15,231.0,5.85,12.17,47.59359,-54.27349
2023-11-06 01:24:00+00:00,244.0,3.94,248.0,4.53,12.17,47.59359,-54.27349
2023-11-06 01:34:00+00:00,254.0,4.36,260.0,4.93,12.17,47.59359,-54.27349
2023-11-06 01:44:00+00:00,266.0,4.62,271.0,5.35,12.17,47.59359,-54.27349
2023-11-06 01:54:00+00:00,273.0,5.52,273.0,5.97,12.17,47.59359,-54.27349
2023-11-06 02:04:00+00:00,265.0,5.83,267.0,6.49,12.17,47.59359,-54.27349
2023-11-06 02:14:01+00:00,262.0,5.34,264.0,5.92,12.17,47.59359,-54.27349
2023-11-06 02:24:01+00:00,244.0,5.18,243.0,5.46,12.17,47.59359,-54.27349
2023-11-06 02:34:01+00:00,239.0,5.21,233.0,5.74,12.17,47.59359,-54.27349
2023-11-06 02:44:01+00:00,245.0,5.13,248.0,5.6,12.17,47.59359,-54.27349
2023-11-06 02:54:01+00:00,250.0,5.55,246.0,6.25,12.17,47.59359,-54.27349
2023-11-06 03:04:01+00:00,254.0,5.9,253.0,6.5,12.17,47.59359,-54.27349
2023-11-06 03:14:01+00:00,260.0,7.1,259.0,8.67,12.09,47.59359,-54.27349
2023-11-06 03:24:01+00:00,260.0,6.92,257.0,8.11,12.09,47.59359,-54.27349
2023-11-06 03:34:01+00:00,264.0,6.87,267.0,7.94,12.09,47.59359,-54.27349
2023-11-06 03:44:01+00:00,261.0,7.34,261.0,8.08,12.09,47.59359,-54.27349
2023-11-06 03:54:01+00:00,258.0,7.56,256.0,8.16,12.09,47.59359,-54.27349
2023-11-06 04:04:01+00:00,255.0,7.87,261.0,9.14,12.09,47.59359,-54.27349
2023-11-06 04:14:00+00:00,255.0,8.45,251.0,9.3,12.17,47.59359,-54.27349
2023-11-06 04:24:00+00:00,260.0,7.68,261.0,9.0,12.17,47.59359,-54.27349
2023-11-06 04:34:00+00:00,255.0,7.55,249.0,8.79,12.17,47.59359,-54.27349
2023-11-06 04:44:00+00:00,266.0,7.62,256.0,8.56,12.17,47.59359,-54.27349
2023-11-06 04:54:00+00:00,271.0,6.7,263.0,8.05,12.17,47.59359,-54.27349
2023-11-06 05:04:00+00:00,270.0,6.3,272.0,7.13,12.17,47.59359,-54.27349
2023-11-06 05:14:01+00:00,270.0,6.61,267.0,8.24,12.09,47.59359,-54.27349
2023-11-06 05:24:01+00:00,270.0,7.62,272.0,8.55,12.09,47.59359,-54.27349
2023-11-06 05:34:01+00:00,285.0,9.06,276.0,12.91,12.09,47.59359,-54.27349
2023-11-06 05:44:01+00:00,311.0,6.84,309.0,9.12,12.09,47.59359,-54.27349
2023-11-06 05:54:01+00:00,337.0,9.53,335.0,10.75,12.09,47.59359,-54.27349
2023-11-06 06:04:01+00:00,352.0,9.16,352.0,10.21,12.09,47.59359,-54.27349
2023-11-06 06:14:00+00:00,353.0,9.41,353.0,10.87,12.09,47.59359,-54.27349
2023-11-06 06:24:00+00:00,346.0,8.72,349.0,10.56,12.09,47.59359,-54.27349
2023-11-06 06:34:00+00:00,332.0,9.05,329.0,10.33,12.09,47.59359,-54.27349
2023-11-06 06:44:00+00:00,346.0,10.17,345.0,11.84,12.09,47.59359,-54.27349
2023-11-06 06:54:00+00:00,340.0,9.58,330.0,11.01,12.09,47.59359,-54.27349
2023-11-06 07:04:00+00:00,351.0,10.91,352.0,12.3,12.09,47.59359,-54.27349
2023-11-06 07:14:01+00:00,346.0,8.49,343.0,9.66,12.09,47.59359,-54.27349
2023-11-06 07:24:01+00:00,339.0,7.08,347.0,8.21,12.09,47.59359,-54.27349
2023-11-06 07:34:01+00:00,345.0,8.69,345.0,10.3,12.09,47.59359,-54.27349
2023-11-06 07:44:01+00:00,342.0,8.32,346.0,9.76,12.09,47.59359,-54.27349
2023-11-06 07:54:01+00:00,343.0,9.35,340.0,10.64,12.09,47.59359,-54.27349
2023-11-06 08:04:01+00:00,337.0,9.32,333.0,10.61,12.09,47.59359,-54.27349
2023-11-06 08:14:00+00:00,323.0,7.92,326.0,9.61,12.09,47.59359,-54.27349
2023-11-06 08:24:00+00:00,346.0,9.31,347.0,10.39,12.09,47.59359,-54.27349
2023-11-06 08:34:00+00:00,329.0,9.36,322.0,11.18,12.09,47.59359,-54.27349
2023-11-06 08:44:00+00:00,347.0,9.47,4.0,11.8,12.09,47.59359,-54.27349
2023-11-06 08:54:00+00:00,348.0,10.29,340.0,12.35,12.09,47.59359,-54.27349
2023-11-06 09:04:00+00:00,342.0,9.26,333.0,10.68,12.09,47.59359,-54.27349
2023-11-06 09:14:00+00:00,344.0,9.67,357.0,11.52,12.09,47.59359,-54.27349
2023-11-06 09:24:00+00:00,333.0,7.18,335.0,8.56,12.09,47.59359,-54.27349
2023-11-06 09:34:00+00:00,322.0,9.2,312.0,12.08,12.09,47.59359,-54.27349
2023-11-06 09:44:00+00:00,356.0,7.92,345.0,9.65,12.09,47.59359,-54.27349
2023-11-06 09:54:00+00:00,309.0,8.37,301.0,11.24,12.09,47.59359,-54.27349
2023-11-06 10:04:00+00:00,320.0,9.03,307.0,11.51,12.09,47.59359,-54.27349
2023-11-06 10:14:00+00:00,325.0,9.81,321.0,13.03,12.09,47.59359,-54.27349
2023-11-06 10:24:00+00:00,319.0,10.9,317.0,12.85,12.09,47.59359,-54.27349
2023-11-06 10:34:00+00:00,318.0,8.44,302.0,11.25,12.09,47.59359,-54.27349
2023-11-06 10:44:00+00:00,342.0,5.63,7.0,6.97,12.09,47.59359,-54.27349
2023-11-06 10:54:00+00:00,332.0,7.0,332.0,8.41,12.09,47.59359,-54.27349
2023-11-06 11:04:00+00:00,318.0,6.21,305.0,8.66,12.09,47.59359,-54.27349
2023-11-06 11:14:00+00:00,323.0,7.27,308.0,9.05,12.33,47.59359,-54.27349
2023-11-06 11:24:00+00:00,329.0,10.57,318.0,13.24,12.33,47.59359,-54.27349
2023-11-06 11:34:00+00:00,327.0,8.36,312.0,10.83,12.33,47.59359,-54.27349
2023-11-06 11:44:00+00:00,338.0,9.28,340.0,12.39,12.33,47.59359,-54.27349
2023-11-06 11:54:00+00:00,311.0,9.04,309.0,11.21,12.33,47.59359,-54.27349
2023-11-06 12:04:00+00:00,318.0,9.1,317.0,11.65,12.33,47.59359,-54.27349
2023-11-06 12:14:01+00:00,313.0,8.61,306.0,10.75,14.24,47.59359,-54.27349
2023-11-06 12:24:01+00:00,321.0,9.18,308.0,10.69,14.24,47.59359,-54.27349
2023-11-06 12:34:01+00:00,320.0,9.31,310.0,11.32,14.24,47.59359,-54.27349
2023-11-06 12:44:01+00:00,326.0,9.6,307.0,11.44,14.24,47.59359,-54.27349
2023-11-06 12:54:01+00:00,321.0,11.56,321.0,12.96,14.24,47.59359,-54.27349
2023-11-06 13:04:01+00:00,317.0,7.92,335.0,11.25,14.24,47.59359,-54.27349
2023-11-06 13:14:00+00:00,326.0,12.95,322.0,14.43,14.16,47.59359,-54.27349
2023-11-06 13:24:00+00:00,326.0,9.97,337.0,12.14,14.16,47.59359,-54.27349
2023-11-06 13:34:00+00:00,314.0,10.87,308.0,13.51,14.16,47.59359,-54.27349
2023-11-06 13:44:00+00:00,327.0,10.32,330.0,12.02,14.16,47.59359,-54.27349
2023-11-06 13:54:00+00:00,321.0,11.19,321.0,13.15,14.16,47.59359,-54.27349
2023-11-06 14:04:00+00:00,333.0,10.53,327.0,11.78,14.16,47.59359,-54.27349
2023-11-06 14:14:00+00:00,319.0,11.67,320.0,13.29,13.68,47.59359,-54.27349
2023-11-06 14:24:00+00:00,329.0,10.49,329.0,13.15,13.68,47.59359,-54.27349
2023-11-06 14:34:00+00:00,328.0,12.39,338.0,17.4,13.68,47.59359,-54.27349
2023-11-06 14:44:00+00:00,326.0,10.16,323.0,11.83,13.68,47.59359,-54.27349
2023-11-06 14:54:00+00:00,323.0,9.42,326.0,13.14,13.68,47.59359,-54.27349
2023-11-06 15:04:00+00:00,319.0,9.78,327.0,11.83,13.68,47.59359,-54.27349
2023-11-06 15:14:01+00:00,315.0,9.94,318.0,11.53,14.08,47.59359,-54.27349
2023-11-06 15:24:01+00:00,317.0,8.67,317.0,11.06,14.08,47.59359,-54.27349
2023-11-06 15:34:01+00:00,302.0,7.32,311.0,9.44,14.08,47.59359,-54.27349
2023-11-06 15:44:01+00:00,314.0,8.67,318.0,9.9,14.08,47.59359,-54.27349
2023-11-06 15:54:01+00:00,308.0,11.06,304.0,14.29,14.08,47.59359,-54.27349
2023-11-06 16:04:01+00:00,308.0,6.93,308.0,7.8,14.08,47.59359,-54.27349
2023-11-06 16:14:01+00:00,304.0,8.88,304.0,10.75,14.48,47.59359,-54.27349
2023-11-06 16:24:01+00:00,305.0,8.01,311.0,9.62,14.48,47.59359,-54.27349
2023-11-06 16:34:01+00:00,310.0,9.67,318.0,11.2,14.48,47.59359,-54.27349
2023-11-06 16:44:01+00:00,303.0,6.59,307.0,8.26,14.48,47.59359,-54.27349
2023-11-06 16:54:01+00:00,286.0,8.49,286.0,10.02,14.48,47.59359,-54.27349
2023-11-06 17:04:01+00:00,308.0,6.77,303.0,8.09,14.48,47.59359,-54.27349
2023-11-06 17:14:00+00:00,288.0,8.31,272.0,10.96,14.32,47.59359,-54.27349
2023-11-06 17:24:00+00:00,299.0,8.75,298.0,10.48,14.32,47.59359,-54.27349
2023-11-06 17:34:00+00:00,296.0,8.6,293.0,11.0,14.32,47.59359,-54.27349
2023-11-06 17:44:00+00:00,302.0,8.7,298.0,10.02,14.32,47.59359,-54.27349
2023-11-06 17:54:00+00:00,302.0,9.28,304.0,9.94,14.32,47.59359,-54.27349
2023-11-06 18:04:00+00:00,292.0,9.59,296.0,10.76,14.32,47.59359,-54.27349
2023-11-06 18:14:01+00:00,300.0,8.88,302.0,11.4,14.4,47.59359,-54.27349
2023-11-06 18:24:01+00:00,294.0,8.53,304.0,10.41,14.4,47.59359,-54.27349
2023-11-06 18:34:01+00:00,289.0,10.98,289.0,13.63,14.4,47.59359,-54.27349
2023-11-06 18:44:01+00:00,302.0,9.0,308.0,10.57,14.4,47.59359,-54.27349
2023-11-06 18:54:01+00:00,295.0,8.94,291.0,10.83,14.4,47.59359,-54.27349
2023-11-06 19:04:01+00:00,285.0,8.65,283.0,9.78,14.4,47.59359,-54.27349
2023-11-06 19:14:00+00:00,284.0,7.56,282.0,8.67,13.68,47.59359,-54.27349
2023-11-06 19:24:00+00:00,292.0,9.69,288.0,11.59,13.68,47.59359,-54.27349
2023-11-06 19:34:00+00:00,285.0,8.68,289.0,10.79,13.68,47.59359,-54.27349
2023-11-06 19:44:00+00:00,278.0,8.96,278.0,10.01,13.68,47.59359,-54.27349
2023-11-06 19:54:00+00:00,283.0,9.52,283.0,11.88,13.68,47.59359,-54.27349
2023-11-06 20:04:00+00:00,271.0,7.7,276.0,8.94,13.68,47.59359,-54.27349
2023-11-06 20:14:00+00:00,285.0,9.91,282.0,11.92,12.97,47.59359,-54.27349
2023-11-06 20:24:00+00:00,286.0,8.93,290.0,10.24,12.97,47.59359,-54.27349
2023-11-06 20:34:00+00:00,288.0,8.78,286.0,10.35,12.97,47.59359,-54.27349
2023-11-06 20:44:00+00:00,290.0,7.5,292.0,8.9,12.97,47.59359,-54.27349
2023-11-06 20:54:00+00:00,290.0,7.34,275.0,8.33,12.97,47.59359,-54.27349
2023-11-06 21:04:00+00:00,285.0,6.61,275.0,8.0,12.97,47.59359,-54.27349
2023-11-06 21:14:01+00:00,277.0,7.13,275.0,7.9,12.57,47.59359,-54.27349
2023-11-06 21:24:01+00:00,281.0,7.21,278.0,8.11,12.57,47.59359,-54.27349
2023-11-06 21:34:01+00:00,278.0,6.7,269.0,8.05,12.57,47.59359,-54.27349
2023-11-06 21:44:01+00:00,274.0,6.92,281.0,7.88,12.57,47.59359,-54.27349
2023-11-06 21:54:01+00:00,280.0,8.68,280.0,10.42,12.57,47.59359,-54.27349
2023-11-06 22:04:01+00:00,287.0,8.09,283.0,9.39,12.57,47.59359,-54.27349
2023-11-06 22:14:01+00:00,280.0,8.94,278.0,11.44,12.41,47.59359,-54.27349
2023-11-06 22:24:01+00:00,287.0,8.44,296.0,9.56,12.41,47.59359,-54.27349
2023-11-06 22:34:01+00:00,272.0,6.72,275.0,8.41,12.41,47.59359,-54.27349
2023-11-06 22:44:01+00:00,277.0,7.75,273.0,9.75,12.41,47.59359,-54.27349
2023-11-06 22:54:01+00:00,282.0,7.96,285.0,10.44,12.41,47.59359,-54.27349
2023-11-06 23:04:01+00:00,270.0,6.9,269.0,8.01,12.41,47.59359,-54.27349
2023-11-06 23:14:01+00:00,282.0,6.8,283.0,8.5,12.41,47.59359,-54.27349
2023-11-06 23:24:01+00:00,285.0,7.16,295.0,8.55,12.41,47.59359,-54.27349
2023-11-06 23:34:01+00:00,273.0,7.41,270.0,8.54,12.41,47.59359,-54.27349
2023-11-06 23:44:01+00:00,275.0,8.66,275.0,10.38,12.41,47.59359,-54.27349
2023-11-06 23:54:01+00:00,278.0,8.12,275.0,10.12,12.41,47.59359,-54.27349
